Miscellaneous Local Product
Issued by NWS North Platte, NE

Home | Current Version | Previous Version | Graphics & Text | Print | Product List | Glossary On
Versions: 1 2 3 4 5 6 7 8 9 10 11 12 13 14 15 16 17 18 19 20 21 22 23 24 25 26 27 28 29 30 31 32 33 34 35 36 37 38 39 40 41 42 43 44 45 46 47 48 49 50
902
AXUS43 KLBF 060410
MISLBF


WESTERN AND NORTH CENTRAL NEBRASKA HOURLY WEATHER ROUNDUP
NATIONAL WEATHER SERVICE NORTH PLATTE NE
1100 PM CDT THU MAY 05 2016

NOTE: "FAIR" INDICATES FEW OR NO CLOUDS BELOW 12,000 FEET WITH NO
SIGNIFICANT WEATHER AND/OR OBSTRUCTIONS TO VISIBILITY.

NOTE: STATIONS NOT REPORTING VARIABLES SUCH AS SKY/WEATHER OR
PRESSURE ARE PROVIDED BY RAWS AND APRS NETWORKS AND ARE NOT UNDER
NATIONAL WEATHER SERVICE QUALITY CONTROL.

...OBSERVATIONS IN AND NEAR THE EASTERN PANHANDLE OF NEBRASKA...

CITY           SKY/WX    TMP DP  RH WIND       PRES   REMARKS
PINE RIDGE     CLEAR     69  43  38 S13       29.91R
CHADRON        CLOUDY    64  44  48 CALM      29.90R
ALLIANCE       CLOUDY    58  49  72 S12       29.96R
SIDNEY         CLOUDY    60  46  59 S13       30.01R
BIG SPRINGS      N/A     66  49  54 S14         N/A
$$

...OBSERVATIONS IN NORTHERN NEBRASKA AND FAR SOUTHERN SOUTH DAKOTA...

CITY           SKY/WX    TMP DP  RH WIND       PRES   REMARKS
WINNER         LGT RAIN  74  46  36 S24       29.86R
VALENTINE      PTCLDY    71  45  39 S18       29.90R
THEDFORD       CLOUDY    69  48  47 S15       29.98R
AINSWORTH      CLOUDY    66  47  51 S13       29.94R
O`NEILL        CLEAR     64  48  55 S9        29.96S
ORD            CLEAR     57  48  72 SW8       29.98R
BROKEN BOW     LGT RAIN  65  48  54 S13       30.00R
VALENTINE NWR    N/A     69  48  47 S13         N/A
BUTTE            N/A     66  49  55 S12         N/A
HALSEY           N/A     70  45  40 S12G20      N/A
CHAMBERS         N/A     63  45  51 S3          N/A
EWING            N/A     62  45  54 CALM        N/A
$$

...OBSERVATIONS IN SOUTHWEST NEBRASKA AND FAR NORTHEAST COLORADO...

CITY           SKY/WX    TMP DP  RH WIND       PRES   REMARKS
HOLYOKE        FAIR      63  46  55 S12       30.01S
IMPERIAL       CLOUDY    64  49  57 SE14      30.01R
OGALLALA       PTCLDY    64  47  53 S14       29.99R
NORTH PLATTE   CLOUDY    61  49  64 SE7       29.99R
MCCOOK         CLOUDY    65  48  54 S10       30.01R
LEXINGTON      CLEAR     61  48  62 S10       30.02S
PAXTON           N/A     66  51  58 SE16        N/A
STAPLETON        N/A     62  50  64 CALM        N/A
GOTHENBURG       N/A     68  45  43 S9          N/A
CALLAWAY         N/A     60  49  68 S10         N/A
$$

...OBSERVATIONS IN CENTRAL LINCOLN COUNTY AREA...

CITY           SKY/WX    TMP DP  RH WIND       PRES   REMARKS
N.P. AIRPORT   CLOUDY    61  49  64 SE7       29.99R
N.P. DOWNTOWN    N/A     66  50  57 CALM        N/A
N.P. SOUTHEAST   N/A     66  51  58 SE6G13      N/A
N.P. HILLCREST   N/A     65  50  58 SE10G20     N/A
$$

...SOME OBSERVATIONS FROM AROUND THE REGION...

CITY           SKY/WX    TMP DP  RH WIND       PRES   REMARKS
DENVER         CLOUDY    61  39  44 S18       30.03R
LARAMIE        CLOUDY    51  36  56 SE10      30.13R
CHEYENNE       CLOUDY    59  35  40 SW7       30.08R
SCOTTSBLUFF    CLOUDY    61  42  49 E8        29.96R
RAPID CITY     PTCLDY    55  43  63 CALM      29.88R
BISMARCK       CLOUDY    63  47  55 SE5       29.79R
PIERRE         PTCLDY    68  51  54 SE14      29.79S
SIOUX FALLS    CLEAR     65  44  46 S13       29.93S
OMAHA          PTCLDY    61  47  59 SE7       30.00S
GRAND ISLAND   CLEAR     61  46  57 S9        30.03R
KANSAS CITY    CLEAR     60  38  43 SE5       30.05R
WICHITA        CLEAR     59  47  64 CALM      30.06R
OKLAHOMA CITY  PTCLDY    62  47  57 CALM      30.06R
DALLAS         PTCLDY    72  45  37 CALM      30.05R
AMARILLO       CLEAR     64  45  49 SE16      30.08R
DODGE CITY     PTCLDY    60  45  57 SE13      30.06R
HAYS           CLEAR     57  43  58 SE7       30.05S
GOODLAND       CLOUDY    59  49  69 S14       30.04R
$$




USA.gov is the U.S. government's official web portal to all federal, state and local government web resources and services.